Time,TemperatureF,DewpointF,PressureIn,WindDirection,WindDirectionDegrees,WindSpeedMPH,WindSpeedGustMPH,Humidity,HourlyPrecipIn,Conditions,Clouds,dailyrainin,SoftwareType,DateUTC
2013-07-06 00:01:00,74.8,72.3,30.10,ESE,117,4.0,4.0,92,0.00,,---,0.00,VWS V14.01,2013-07-06 04:01:00,
2013-07-06 00:06:00,74.8,72.3,30.10,ESE,117,0.0,4.0,92,0.00,,---,0.00,VWS V14.01,2013-07-06 04:06:00,
2013-07-06 00:11:00,74.7,72.2,30.10,ESE,117,4.0,4.0,92,0.00,,---,0.00,VWS V14.01,2013-07-06 04:11:00,
2013-07-06 00:16:00,74.7,72.2,30.10,ESE,117,0.0,5.0,92,0.00,,---,0.00,VWS V14.01,2013-07-06 04:16:00,
2013-07-06 00:21:00,74.7,72.2,30.10,ESE,117,1.0,4.0,92,0.00,,---,0.00,VWS V14.01,2013-07-06 04:21:00,
2013-07-06 00:26:00,74.6,72.1,30.10,ESE,117,0.0,5.0,92,0.00,,---,0.00,VWS V14.01,2013-07-06 04:26:00,
2013-07-06 00:31:00,74.6,72.1,30.10,ESE,117,1.0,4.0,92,0.00,,---,0.00,VWS V14.01,2013-07-06 04:31:00,
2013-07-06 00:36:00,74.5,72.0,30.10,ESE,117,0.0,5.0,92,0.00,,---,0.00,VWS V14.01,2013-07-06 04:36:00,
2013-07-06 00:41:00,74.5,72.0,30.10,ESE,117,1.0,1.0,92,0.00,,---,0.00,VWS V14.01,2013-07-06 04:41:00,
2013-07-06 00:46:00,74.5,72.0,30.10,ESE,117,2.0,4.0,92,0.00,,---,0.00,VWS V14.01,2013-07-06 04:46:00,
2013-07-06 00:51:00,74.6,72.1,30.10,ESE,117,1.0,5.0,92,0.00,,---,0.00,VWS V14.01,2013-07-06 04:51:00,
2013-07-06 00:56:00,74.6,72.1,30.10,ESE,117,1.0,6.0,92,0.00,,---,0.00,VWS V14.01,2013-07-06 04:56:00,
2013-07-06 01:01:00,74.6,72.1,30.10,ESE,117,1.0,1.0,92,0.00,,---,0.00,VWS V14.01,2013-07-06 05:01:00,
2013-07-06 01:06:00,74.6,72.1,30.10,ESE,117,1.0,4.0,92,0.00,,---,0.00,VWS V14.01,2013-07-06 05:06:00,
2013-07-06 01:11:00,74.7,72.2,30.10,ESE,117,0.0,0.0,92,0.00,,---,0.00,VWS V14.01,2013-07-06 05:11:00,
2013-07-06 01:16:00,74.6,72.1,30.10,ESE,117,2.0,4.0,92,0.00,,---,0.00,VWS V14.01,2013-07-06 05:16:00,
2013-07-06 01:21:00,74.6,72.1,30.09,ESE,117,0.0,0.0,92,0.00,,---,0.00,VWS V14.01,2013-07-06 05:21:00,
2013-07-06 01:26:00,74.5,72.0,30.09,ESE,117,0.0,1.0,92,0.00,,---,0.00,VWS V14.01,2013-07-06 05:26:00,
2013-07-06 01:31:00,74.5,72.3,30.09,ESE,117,1.0,2.0,93,0.00,,---,0.00,VWS V14.01,2013-07-06 05:31:00,
2013-07-06 01:36:00,74.5,72.3,30.09,ESE,117,4.0,4.0,93,0.00,,---,0.00,VWS V14.01,2013-07-06 05:36:00,
2013-07-06 01:41:00,74.7,72.6,30.09,ESE,117,5.0,7.0,93,0.00,,---,0.00,VWS V14.01,2013-07-06 05:41:00,
2013-07-06 01:46:00,74.8,72.6,30.09,ESE,113,4.0,7.0,93,0.00,,---,0.00,VWS V14.01,2013-07-06 05:46:00,
2013-07-06 01:51:00,74.8,72.6,30.08,ESE,111,2.0,5.0,93,0.00,,---,0.00,VWS V14.01,2013-07-06 05:51:00,
2013-07-06 01:56:00,74.9,72.7,30.08,ESE,112,1.0,7.0,93,0.00,,---,0.00,VWS V14.01,2013-07-06 05:56:00,
2013-07-06 02:01:00,74.9,72.7,30.08,ESE,112,2.0,5.0,93,0.00,,---,0.00,VWS V14.01,2013-07-06 06:01:00,
2013-07-06 02:06:00,74.9,72.7,30.08,ESE,112,2.0,7.0,93,0.00,,---,0.00,VWS V14.01,2013-07-06 06:06:00,
2013-07-06 02:11:00,74.9,72.7,30.08,ESE,112,1.0,2.0,93,0.00,,---,0.00,VWS V14.01,2013-07-06 06:11:00,
2013-07-06 02:16:00,74.9,72.7,30.07,ESE,112,0.0,5.0,93,0.00,,---,0.00,VWS V14.01,2013-07-06 06:16:00,
2013-07-06 02:21:00,74.8,72.6,30.07,ESE,112,4.0,5.0,93,0.00,,---,0.00,VWS V14.01,2013-07-06 06:21:00,
2013-07-06 02:26:00,74.8,72.3,30.07,ESE,112,2.0,5.0,92,0.00,,---,0.00,VWS V14.01,2013-07-06 06:26:00,
2013-07-06 02:31:00,74.8,72.3,30.07,ESE,112,1.0,4.0,92,0.00,,---,0.00,VWS V14.01,2013-07-06 06:31:00,
2013-07-06 02:36:00,74.8,72.3,30.07,ESE,112,2.0,5.0,92,0.00,,---,0.00,VWS V14.01,2013-07-06 06:36:00,
2013-07-06 02:41:00,74.8,72.3,30.07,ESE,111,1.0,4.0,92,0.00,,---,0.00,VWS V14.01,2013-07-06 06:41:00,
2013-07-06 02:46:00,74.8,72.3,30.07,ESE,111,2.0,5.0,92,0.00,,---,0.00,VWS V14.01,2013-07-06 06:46:00,
2013-07-06 02:51:00,74.8,72.3,30.06,ESE,116,2.0,4.0,92,0.00,,---,0.00,VWS V14.01,2013-07-06 06:51:00,
2013-07-06 02:56:00,74.7,72.2,30.07,ESE,116,4.0,4.0,92,0.00,,---,0.00,VWS V14.01,2013-07-06 06:56:00,
2013-07-06 03:01:00,74.7,72.2,30.07,ESE,116,5.0,5.0,92,0.00,,---,0.00,VWS V14.01,2013-07-06 07:01:00,
2013-07-06 03:06:00,74.7,72.2,30.07,ESE,116,4.0,5.0,92,0.00,,---,0.00,VWS V14.01,2013-07-06 07:06:00,
2013-07-06 03:11:00,74.7,72.2,30.06,ESE,116,5.0,6.0,92,0.00,,---,0.00,VWS V14.01,2013-07-06 07:11:00,
2013-07-06 03:16:00,74.7,72.2,30.06,ESE,116,2.0,6.0,92,0.00,,---,0.00,VWS V14.01,2013-07-06 07:16:00,
2013-07-06 03:21:00,74.6,72.1,30.06,ESE,116,5.0,5.0,92,0.00,,---,0.00,VWS V14.01,2013-07-06 07:21:00,
2013-07-06 03:26:00,74.6,72.1,30.06,ESE,116,4.0,7.0,92,0.00,,---,0.00,VWS V14.01,2013-07-06 07:26:00,
2013-07-06 03:31:00,74.6,72.1,30.06,East,101,2.0,5.0,92,0.00,,---,0.00,VWS V14.01,2013-07-06 07:31:00,
2013-07-06 03:36:00,74.6,72.1,30.05,East,92,4.0,7.0,92,0.00,,---,0.00,VWS V14.01,2013-07-06 07:36:00,
2013-07-06 03:41:00,74.6,72.1,30.06,ESE,115,5.0,6.0,92,0.00,,---,0.00,VWS V14.01,2013-07-06 07:41:00,
2013-07-06 03:46:00,74.6,72.1,30.06,ESE,113,4.0,7.0,92,0.00,,---,0.00,VWS V14.01,2013-07-06 07:46:00,
2013-07-06 03:51:00,74.6,72.1,30.06,ESE,112,4.0,5.0,92,0.00,,---,0.00,VWS V14.01,2013-07-06 07:51:00,
2013-07-06 03:56:00,74.5,72.0,30.06,ESE,113,5.0,6.0,92,0.00,,---,0.00,VWS V14.01,2013-07-06 07:56:00,
2013-07-06 04:01:00,74.5,72.0,30.06,ESE,121,0.0,4.0,92,0.00,,---,0.00,VWS V14.01,2013-07-06 08:01:00,
2013-07-06 04:06:00,74.5,72.0,30.06,ESE,121,4.0,5.0,92,0.00,,---,0.00,VWS V14.01,2013-07-06 08:06:00,
2013-07-06 04:11:00,74.5,72.0,30.06,ESE,121,0.0,4.0,92,0.00,,---,0.00,VWS V14.01,2013-07-06 08:11:00,
2013-07-06 04:16:00,74.4,72.2,30.06,ESE,121,1.0,5.0,93,0.00,,---,0.00,VWS V14.01,2013-07-06 08:16:00,
2013-07-06 04:21:00,74.4,72.2,30.06,ESE,121,0.0,0.0,93,0.00,,---,0.00,VWS V14.01,2013-07-06 08:21:00,
2013-07-06 04:26:00,74.3,72.2,30.06,ESE,121,4.0,5.0,93,0.00,,---,0.00,VWS V14.01,2013-07-06 08:26:00,
2013-07-06 04:31:00,74.3,72.2,30.06,ESE,121,0.0,0.0,93,0.00,,---,0.00,VWS V14.01,2013-07-06 08:31:00,
2013-07-06 04:36:00,74.2,72.1,30.06,ESE,121,0.0,4.0,93,0.00,,---,0.00,VWS V14.01,2013-07-06 08:36:00,
2013-07-06 04:41:00,74.2,72.1,30.05,ESE,121,4.0,4.0,93,0.00,,---,0.00,VWS V14.01,2013-07-06 08:41:00,
2013-07-06 04:46:00,74.2,72.1,30.06,ESE,121,1.0,5.0,93,0.00,,---,0.00,VWS V14.01,2013-07-06 08:46:00,
2013-07-06 04:51:00,74.3,72.2,30.06,ESE,121,4.0,5.0,93,0.00,,---,0.00,VWS V14.01,2013-07-06 08:51:00,
2013-07-06 04:56:00,74.3,72.2,30.06,ESE,121,4.0,5.0,93,0.00,,---,0.00,VWS V14.01,2013-07-06 08:56:00,
2013-07-06 05:01:00,74.2,72.1,30.05,ESE,121,1.0,4.0,93,0.00,,---,0.00,VWS V14.01,2013-07-06 09:01:00,
2013-07-06 05:06:00,74.2,72.1,30.06,ESE,121,0.0,4.0,93,0.00,,---,0.00,VWS V14.01,2013-07-06 09:06:00,
2013-07-06 05:11:00,74.2,72.1,30.06,ESE,121,0.0,1.0,93,0.00,,---,0.00,VWS V14.01,2013-07-06 09:11:00,
2013-07-06 05:16:00,74.2,72.1,30.06,ESE,121,1.0,4.0,93,0.00,,---,0.00,VWS V14.01,2013-07-06 09:16:00,
2013-07-06 05:21:00,74.2,72.1,30.06,ESE,121,1.0,7.0,93,0.00,,---,0.00,VWS V14.01,2013-07-06 09:21:00,
2013-07-06 05:26:00,74.2,72.1,30.06,ESE,121,4.0,7.0,93,0.00,,---,0.00,VWS V14.01,2013-07-06 09:26:00,
2013-07-06 05:31:00,74.2,72.1,30.06,ESE,121,5.0,5.0,93,0.00,,---,0.00,VWS V14.01,2013-07-06 09:31:00,
2013-07-06 05:36:00,74.2,72.1,30.06,ESE,121,6.0,6.0,93,0.00,,---,0.00,VWS V14.01,2013-07-06 09:36:00,
2013-07-06 05:41:00,74.2,72.1,30.05,ESE,113,4.0,4.0,93,0.00,,---,0.00,VWS V14.01,2013-07-06 09:41:00,
2013-07-06 05:46:00,74.1,71.9,30.06,ESE,113,1.0,7.0,93,0.00,,---,0.00,VWS V14.01,2013-07-06 09:46:00,
2013-07-06 05:51:00,74.1,71.9,30.05,ESE,113,4.0,4.0,93,0.00,,---,0.00,VWS V14.01,2013-07-06 09:51:00,
2013-07-06 05:56:00,74.2,72.1,30.05,ESE,113,5.0,7.0,93,0.00,,---,0.00,VWS V14.01,2013-07-06 09:56:00,
2013-07-06 06:01:00,74.2,72.1,30.05,ESE,113,2.0,4.0,93,0.00,,---,0.00,VWS V14.01,2013-07-06 10:01:00,
2013-07-06 06:06:00,74.2,72.1,30.05,ESE,105,0.0,6.0,93,0.00,,---,0.00,VWS V14.01,2013-07-06 10:06:00,
2013-07-06 06:11:00,74.2,72.1,30.05,ESE,105,2.0,4.0,93,0.00,,---,0.00,VWS V14.01,2013-07-06 10:11:00,
2013-07-06 06:16:00,74.2,72.1,30.05,ESE,105,4.0,6.0,93,0.00,,---,0.00,VWS V14.01,2013-07-06 10:16:00,
2013-07-06 06:21:00,74.2,72.1,30.05,ESE,105,2.0,4.0,93,0.00,,---,0.00,VWS V14.01,2013-07-06 10:21:00,
2013-07-06 06:26:00,74.2,72.1,30.05,ESE,105,2.0,5.0,93,0.00,,---,0.00,VWS V14.01,2013-07-06 10:26:00,
2013-07-06 06:31:00,74.2,72.1,30.05,ESE,105,4.0,5.0,93,0.00,,---,0.00,VWS V14.01,2013-07-06 10:31:00,
2013-07-06 06:36:00,74.1,71.9,30.06,ESE,105,1.0,7.0,93,0.00,,---,0.00,VWS V14.01,2013-07-06 10:36:00,
2013-07-06 06:41:00,74.1,71.9,30.05,ESE,105,4.0,5.0,93,0.00,,---,0.00,VWS V14.01,2013-07-06 10:41:00,
2013-07-06 06:46:00,74.1,71.9,30.05,ESE,105,1.0,5.0,93,0.00,,---,0.00,VWS V14.01,2013-07-06 10:46:00,
2013-07-06 06:51:00,74.1,71.9,30.05,ESE,105,2.0,4.0,93,0.00,,---,0.00,VWS V14.01,2013-07-06 10:51:00,
2013-07-06 06:56:00,74.2,72.1,30.06,ESE,105,6.0,7.0,93,0.00,,---,0.00,VWS V14.01,2013-07-06 10:56:00,
2013-07-06 07:01:00,74.2,72.1,30.06,East,95,1.0,2.0,93,0.00,,---,0.00,VWS V14.01,2013-07-06 11:01:00,
2013-07-06 07:06:00,74.3,72.2,30.06,East,95,0.0,6.0,93,0.00,,---,0.00,VWS V14.01,2013-07-06 11:06:00,
2013-07-06 07:11:00,74.5,72.3,30.06,East,95,1.0,2.0,93,0.00,,---,0.00,VWS V14.01,2013-07-06 11:11:00,
2013-07-06 07:16:00,74.7,72.6,30.06,East,95,0.0,6.0,93,0.00,,---,0.00,VWS V14.01,2013-07-06 11:16:00,
2013-07-06 07:21:00,74.9,72.7,30.06,East,95,6.0,6.0,93,0.00,,---,0.00,VWS V14.01,2013-07-06 11:21:00,
2013-07-06 07:26:00,75.2,73.0,30.06,East,95,1.0,8.0,93,0.00,,---,0.00,VWS V14.01,2013-07-06 11:26:00,
2013-07-06 07:31:00,75.4,73.2,30.06,East,95,4.0,6.0,93,0.00,,---,0.00,VWS V14.01,2013-07-06 11:31:00,
2013-07-06 07:36:00,75.8,73.3,30.06,East,92,5.0,8.0,92,0.00,,---,0.00,VWS V14.01,2013-07-06 11:36:00,
2013-07-06 07:41:00,76.1,73.6,30.06,ENE,77,3.0,5.0,92,0.00,,---,0.00,VWS V14.01,2013-07-06 11:41:00,
2013-07-06 07:46:00,76.4,73.6,30.07,East,84,5.0,13.0,91,0.00,,---,0.00,VWS V14.01,2013-07-06 11:46:00,
2013-07-06 07:51:00,76.7,73.9,30.07,East,80,5.0,5.0,91,0.00,,---,0.00,VWS V14.01,2013-07-06 11:51:00,
2013-07-06 07:56:00,77.0,74.2,30.07,ENE,78,4.0,10.0,91,0.00,,---,0.00,VWS V14.01,2013-07-06 11:56:00,
2013-07-06 08:01:00,77.4,74.2,30.07,SE,124,9.0,9.0,90,0.00,,---,0.00,VWS V14.01,2013-07-06 12:01:00,
2013-07-06 08:06:00,77.6,74.4,30.07,ESE,115,4.0,9.0,90,0.00,,---,0.00,VWS V14.01,2013-07-06 12:06:00,
2013-07-06 08:11:00,78.0,74.5,30.08,ESE,117,5.0,5.0,89,0.00,,---,0.00,VWS V14.01,2013-07-06 12:11:00,
2013-07-06 08:16:00,78.5,75.0,30.08,East,94,5.0,7.0,89,0.00,,---,0.00,VWS V14.01,2013-07-06 12:16:00,
2013-07-06 08:21:00,78.9,74.7,30.08,SE,133,4.0,5.0,87,0.00,,---,0.00,VWS V14.01,2013-07-06 12:21:00,
2013-07-06 08:26:00,79.2,75.0,30.08,ESE,109,2.0,7.0,87,0.00,,---,0.00,VWS V14.01,2013-07-06 12:26:00,
2013-07-06 08:31:00,79.6,75.4,30.08,ESE,108,4.0,5.0,87,0.00,,---,0.00,VWS V14.01,2013-07-06 12:31:00,
2013-07-06 08:36:00,80.0,75.1,30.09,SE,133,0.0,8.0,85,0.00,,---,0.00,VWS V14.01,2013-07-06 12:36:00,
2013-07-06 08:41:00,80.5,75.2,30.09,ESE,122,5.0,5.0,84,0.00,,---,0.00,VWS V14.01,2013-07-06 12:41:00,
2013-07-06 08:46:00,80.9,76.0,30.09,ENE,78,3.0,8.0,85,0.00,,---,0.00,VWS V14.01,2013-07-06 12:46:00,
2013-07-06 08:51:00,81.2,75.6,30.09,SE,124,5.0,6.0,83,0.00,,---,0.00,VWS V14.01,2013-07-06 12:51:00,
2013-07-06 08:56:00,81.3,75.7,30.09,SE,146,5.0,12.0,83,0.00,,---,0.00,VWS V14.01,2013-07-06 12:56:00,
2013-07-06 09:01:00,81.4,75.4,30.09,SSE,147,10.0,12.0,82,0.00,,---,0.00,VWS V14.01,2013-07-06 13:01:00,
2013-07-06 09:06:00,81.4,75.4,30.09,SE,139,10.0,12.0,82,0.00,,---,0.00,VWS V14.01,2013-07-06 13:06:00,
2013-07-06 09:11:00,81.6,76.3,30.09,SSE,161,10.0,11.0,84,0.00,,---,0.00,VWS V14.01,2013-07-06 13:11:00,
2013-07-06 09:16:00,81.8,75.4,30.10,ENE,68,6.0,15.0,81,0.00,,---,0.00,VWS V14.01,2013-07-06 13:16:00,
2013-07-06 09:21:00,81.9,76.2,30.10,ESE,111,5.0,8.0,83,0.00,,---,0.00,VWS V14.01,2013-07-06 13:21:00,
2013-07-06 09:26:00,82.0,75.6,30.10,SE,144,7.0,11.0,81,0.00,,---,0.00,VWS V14.01,2013-07-06 13:26:00,
2013-07-06 09:31:00,82.2,75.8,30.10,SE,131,6.0,6.0,81,0.00,,---,0.00,VWS V14.01,2013-07-06 13:31:00,
2013-07-06 09:36:00,82.7,75.9,30.10,SE,139,11.0,15.0,80,0.00,,---,0.00,VWS V14.01,2013-07-06 13:36:00,
2013-07-06 09:41:00,82.8,76.4,30.10,SSE,155,7.0,9.0,81,0.00,,---,0.00,VWS V14.01,2013-07-06 13:41:00,
2013-07-06 09:46:00,82.8,76.4,30.10,ESE,107,6.0,9.0,81,0.00,,---,0.00,VWS V14.01,2013-07-06 13:46:00,
2013-07-06 09:51:00,82.5,74.9,30.10,ESE,121,13.0,13.0,78,0.00,,---,0.00,VWS V14.01,2013-07-06 13:51:00,
2013-07-06 09:56:00,81.8,74.7,30.10,ESE,121,8.0,15.0,79,0.00,,---,0.00,VWS V14.01,2013-07-06 13:56:00,
2013-07-06 10:01:00,81.9,75.1,30.10,SSE,148,7.0,7.0,80,0.00,,---,0.00,VWS V14.01,2013-07-06 14:01:00,
2013-07-06 10:06:00,81.9,75.1,30.10,SE,126,6.0,12.0,80,0.00,,---,0.00,VWS V14.01,2013-07-06 14:06:00,
2013-07-06 10:11:00,81.8,75.0,30.10,SE,130,6.0,6.0,80,0.00,,---,0.00,VWS V14.01,2013-07-06 14:11:00,
2013-07-06 10:16:00,81.7,74.6,30.10,SE,136,8.0,11.0,79,0.00,,---,0.00,VWS V14.01,2013-07-06 14:16:00,
2013-07-06 10:21:00,81.8,75.4,30.11,SSE,147,8.0,9.0,81,0.00,,---,0.00,VWS V14.01,2013-07-06 14:21:00,
2013-07-06 10:25:00,82.3,75.1,30.10,South,171,5.0,12.0,79,0.00,,---,0.00,VWS V14.01,2013-07-06 14:25:00,
2013-07-06 10:30:00,83.2,75.6,30.10,ESE,113,11.0,11.0,78,0.00,,---,0.00,VWS V14.01,2013-07-06 14:30:00,
2013-07-06 10:35:00,83.9,75.5,30.11,SE,132,2.0,14.0,76,0.00,,---,0.00,VWS V14.01,2013-07-06 14:35:00,
2013-07-06 10:40:00,84.8,77.2,30.10,ESE,118,8.0,9.0,78,0.00,,---,0.00,VWS V14.01,2013-07-06 14:40:00,
2013-07-06 10:45:00,84.7,75.5,30.11,SE,140,9.0,13.0,74,0.00,,---,0.00,VWS V14.01,2013-07-06 14:45:00,
2013-07-06 10:50:00,84.4,76.0,30.10,ESE,113,8.0,8.0,76,0.00,,---,0.00,VWS V14.01,2013-07-06 14:50:00,
2013-07-06 10:55:00,84.9,75.3,30.10,SE,130,14.0,14.0,73,0.00,,---,0.00,VWS V14.01,2013-07-06 14:55:00,
2013-07-06 11:00:00,84.9,74.9,30.10,East,96,7.0,8.0,72,0.00,,---,0.00,VWS V14.01,2013-07-06 15:00:00,
2013-07-06 11:05:00,85.2,76.8,30.11,SSE,168,9.0,14.0,76,0.00,,---,0.00,VWS V14.01,2013-07-06 15:05:00,
2013-07-06 11:10:00,85.4,76.2,30.11,SSE,149,7.0,7.0,74,0.00,,---,0.00,VWS V14.01,2013-07-06 15:10:00,
2013-07-06 11:15:00,85.8,76.2,30.11,SSE,157,8.0,13.0,73,0.00,,---,0.00,VWS V14.01,2013-07-06 15:15:00,
2013-07-06 11:20:00,85.5,74.6,30.11,SSE,161,6.0,6.0,70,0.00,,---,0.00,VWS V14.01,2013-07-06 15:20:00,
2013-07-06 11:25:00,84.5,74.5,30.11,SE,140,5.0,11.0,72,0.00,,---,0.00,VWS V14.01,2013-07-06 15:25:00,
2013-07-06 11:30:00,84.5,75.3,30.10,ESE,103,5.0,5.0,74,0.00,,---,0.00,VWS V14.01,2013-07-06 15:30:00,
2013-07-06 11:35:00,85.6,76.8,30.10,SE,139,6.0,9.0,75,0.00,,---,0.00,VWS V14.01,2013-07-06 15:35:00,
2013-07-06 11:40:00,85.8,74.9,30.10,SSE,159,6.0,6.0,70,0.00,,---,0.00,VWS V14.01,2013-07-06 15:40:00,
2013-07-06 11:45:00,86.0,75.1,30.10,East,82,5.0,11.0,70,0.00,,---,0.00,VWS V14.01,2013-07-06 15:45:00,
2013-07-06 11:50:00,86.6,76.1,30.10,SE,134,4.0,14.0,71,0.00,,---,0.00,VWS V14.01,2013-07-06 15:50:00,
2013-07-06 11:55:00,86.6,74.3,30.10,SSE,154,7.0,10.0,67,0.00,,---,0.00,VWS V14.01,2013-07-06 15:55:00,
2013-07-06 12:01:00,86.0,74.2,30.10,ENE,67,5.0,5.0,68,0.00,,---,0.00,VWS V14.01,2013-07-06 16:01:00,
2013-07-06 12:06:00,86.3,75.4,30.10,SE,134,8.0,9.0,70,0.00,,---,0.00,VWS V14.01,2013-07-06 16:06:00,
2013-07-06 12:11:00,86.7,74.4,30.10,East,100,9.0,13.0,67,0.00,,---,0.00,VWS V14.01,2013-07-06 16:11:00,
2013-07-06 12:16:00,86.3,73.6,30.09,SSE,158,6.0,15.0,66,0.00,,---,0.00,VWS V14.01,2013-07-06 16:16:00,
2013-07-06 12:21:00,86.9,74.6,30.10,East,93,13.0,13.0,67,0.00,,---,0.00,VWS V14.01,2013-07-06 16:21:00,
2013-07-06 12:26:00,87.2,77.1,30.09,SE,132,8.0,14.0,72,0.00,,---,0.00,VWS V14.01,2013-07-06 16:26:00,
2013-07-06 12:31:00,87.6,74.4,30.09,SE,142,8.0,10.0,65,0.00,,---,0.00,VWS V14.01,2013-07-06 16:31:00,
2013-07-06 12:36:00,86.9,73.3,30.09,SE,131,12.0,14.0,64,0.00,,---,0.00,VWS V14.01,2013-07-06 16:36:00,
2013-07-06 12:41:00,87.3,76.3,30.09,SSE,149,8.0,8.0,70,0.00,,---,0.00,VWS V14.01,2013-07-06 16:41:00,
2013-07-06 12:47:00,87.6,73.9,30.09,ESE,114,9.0,13.0,64,0.00,,---,0.00,VWS V14.01,2013-07-06 16:47:00,
2013-07-06 12:52:00,87.4,73.7,30.09,East,101,14.0,15.0,64,0.00,,---,0.00,VWS V14.01,2013-07-06 16:52:00,
2013-07-06 12:57:00,87.9,73.3,30.09,SE,130,9.0,15.0,62,0.00,,---,0.00,VWS V14.01,2013-07-06 16:57:00,
2013-07-06 13:02:00,87.6,73.9,30.08,ESE,109,7.0,12.0,64,0.00,,---,0.00,VWS V14.01,2013-07-06 17:02:00,
2013-07-06 13:07:00,87.9,73.7,30.08,ESE,113,8.0,13.0,63,0.00,,---,0.00,VWS V14.01,2013-07-06 17:07:00,
2013-07-06 13:12:00,87.9,73.3,30.08,SE,131,7.0,9.0,62,0.00,,---,0.00,VWS V14.01,2013-07-06 17:12:00,
2013-07-06 13:17:00,88.0,72.9,30.08,ESE,112,9.0,13.0,61,0.00,,---,0.00,VWS V14.01,2013-07-06 17:17:00,
2013-07-06 13:23:00,88.1,73.4,30.08,ESE,119,13.0,13.0,62,0.00,,---,0.00,VWS V14.01,2013-07-06 17:23:00,
2013-07-06 13:28:00,88.6,73.9,30.08,ENE,69,4.0,15.0,62,0.00,,---,0.00,VWS V14.01,2013-07-06 17:28:00,
2013-07-06 13:33:00,89.0,73.8,30.08,East,101,5.0,13.0,61,0.00,,---,0.00,VWS V14.01,2013-07-06 17:33:00,
2013-07-06 13:38:00,88.8,74.1,30.08,ESE,110,11.0,13.0,62,0.00,,---,0.00,VWS V14.01,2013-07-06 17:38:00,
2013-07-06 13:44:00,89.4,72.2,30.07,SE,131,7.0,13.0,57,0.00,,---,0.00,VWS V14.01,2013-07-06 17:44:00,
2013-07-06 13:49:00,89.4,72.7,30.07,SE,129,11.0,13.0,58,0.00,,---,0.00,VWS V14.01,2013-07-06 17:49:00,
2013-07-06 13:54:00,88.5,71.3,30.07,ESE,105,6.0,17.0,57,0.00,,---,0.00,VWS V14.01,2013-07-06 17:54:00,
2013-07-06 13:59:00,88.3,72.7,30.07,SE,136,7.0,17.0,60,0.00,,---,0.00,VWS V14.01,2013-07-06 17:59:00,
2013-07-06 14:04:00,88.6,72.9,30.07,SSE,147,6.0,13.0,60,0.00,,---,0.00,VWS V14.01,2013-07-06 18:04:00,
2013-07-06 14:09:00,88.9,71.7,30.07,SSE,156,4.0,13.0,57,0.00,,---,0.00,VWS V14.01,2013-07-06 18:09:00,
2013-07-06 14:14:00,88.8,73.6,30.07,ESE,105,6.0,10.0,61,0.00,,---,0.00,VWS V14.01,2013-07-06 18:14:00,
2013-07-06 14:19:00,88.7,74.0,30.06,SE,132,5.0,10.0,62,0.00,,---,0.00,VWS V14.01,2013-07-06 18:19:00,
2013-07-06 14:24:00,88.8,73.1,30.06,East,94,11.0,13.0,60,0.00,,---,0.00,VWS V14.01,2013-07-06 18:24:00,
2013-07-06 14:30:00,88.8,72.1,30.06,SE,136,5.0,14.0,58,0.00,,---,0.00,VWS V14.01,2013-07-06 18:30:00,
2013-07-06 14:35:00,88.7,75.0,30.06,East,92,4.0,9.0,64,0.00,,---,0.00,VWS V14.01,2013-07-06 18:35:00,
2013-07-06 14:40:00,89.1,72.9,30.06,ESE,103,6.0,14.0,59,0.00,,---,0.00,VWS V14.01,2013-07-06 18:40:00,
2013-07-06 14:45:00,89.3,72.6,30.06,SE,128,9.0,14.0,58,0.00,,---,0.00,VWS V14.01,2013-07-06 18:45:00,
2013-07-06 14:50:00,89.9,73.2,30.06,SSE,150,13.0,14.0,58,0.00,,---,0.00,VWS V14.01,2013-07-06 18:50:00,
2013-07-06 14:55:00,89.9,72.6,30.05,ESE,119,16.0,17.0,57,0.00,,---,0.00,VWS V14.01,2013-07-06 18:55:00,
2013-07-06 15:00:00,89.9,73.2,30.05,SE,134,7.0,17.0,58,0.00,,---,0.00,VWS V14.01,2013-07-06 19:00:00,
2013-07-06 15:05:00,90.0,74.3,30.05,SE,132,8.0,14.0,60,0.00,,---,0.00,VWS V14.01,2013-07-06 19:05:00,
2013-07-06 15:11:00,90.3,71.4,30.05,ESE,121,9.0,15.0,54,0.00,,---,0.00,VWS V14.01,2013-07-06 19:11:00,
2013-07-06 15:16:00,90.4,72.6,30.04,SSE,148,13.0,15.0,56,0.00,,---,0.00,VWS V14.01,2013-07-06 19:16:00,
2013-07-06 15:21:00,90.7,72.3,30.04,ESE,123,8.0,16.0,55,0.00,,---,0.00,VWS V14.01,2013-07-06 19:21:00,
2013-07-06 15:27:00,90.3,71.9,30.04,SSE,167,14.0,16.0,55,0.00,,---,0.00,VWS V14.01,2013-07-06 19:27:00,
2013-07-06 15:32:00,90.5,73.7,30.04,SSE,150,8.0,14.0,58,0.00,,---,0.00,VWS V14.01,2013-07-06 19:32:00,
2013-07-06 15:37:00,90.4,70.4,30.04,ESE,123,12.0,18.0,52,0.00,,---,0.00,VWS V14.01,2013-07-06 19:37:00,
2013-07-06 15:42:00,90.4,71.5,30.04,SSE,147,12.0,14.0,54,0.00,,---,0.00,VWS V14.01,2013-07-06 19:42:00,
2013-07-06 15:47:00,90.9,70.8,30.04,ESE,114,9.0,14.0,52,0.00,,---,0.00,VWS V14.01,2013-07-06 19:47:00,
2013-07-06 15:52:00,90.9,71.4,30.04,SE,140,2.0,10.0,53,0.00,,---,0.00,VWS V14.01,2013-07-06 19:52:00,
2013-07-06 15:58:00,91.2,71.7,30.04,ESE,115,6.0,14.0,53,0.00,,---,0.00,VWS V14.01,2013-07-06 19:58:00,
2013-07-06 16:03:00,91.6,72.6,30.04,SE,139,9.0,18.0,54,0.00,,---,0.00,VWS V14.01,2013-07-06 20:03:00,
2013-07-06 16:08:00,91.3,72.3,30.03,SE,138,9.0,18.0,54,0.00,,---,0.00,VWS V14.01,2013-07-06 20:08:00,
2013-07-06 16:13:00,91.0,72.1,30.03,SSE,153,7.0,13.0,54,0.00,,---,0.00,VWS V14.01,2013-07-06 20:13:00,
2013-07-06 16:19:00,90.7,72.3,30.03,East,86,13.0,19.0,55,0.00,,---,0.00,VWS V14.01,2013-07-06 20:19:00,
2013-07-06 16:24:00,89.7,72.4,30.03,East,96,5.0,13.0,57,0.00,,---,0.00,VWS V14.01,2013-07-06 20:24:00,
2013-07-06 16:29:00,89.6,71.8,30.03,SE,131,4.0,13.0,56,0.00,,---,0.00,VWS V14.01,2013-07-06 20:29:00,
2013-07-06 16:34:00,89.9,73.7,30.02,ESE,109,15.0,16.0,59,0.00,,---,0.00,VWS V14.01,2013-07-06 20:34:00,
2013-07-06 16:39:00,89.6,73.4,30.02,East,99,12.0,16.0,59,0.00,,---,0.00,VWS V14.01,2013-07-06 20:39:00,
2013-07-06 16:45:00,89.2,74.0,30.02,ENE,72,11.0,15.0,61,0.00,,---,0.00,VWS V14.01,2013-07-06 20:45:00,
2013-07-06 16:50:00,89.2,73.0,30.02,East,95,12.0,15.0,59,0.00,,---,0.00,VWS V14.01,2013-07-06 20:50:00,
2013-07-06 16:55:00,88.6,73.4,30.02,ENE,73,6.0,12.0,61,0.00,,---,0.00,VWS V14.01,2013-07-06 20:55:00,
2013-07-06 17:00:00,88.9,74.2,30.02,ENE,77,5.0,13.0,62,0.00,,---,0.00,VWS V14.01,2013-07-06 21:00:00,
2013-07-06 17:05:00,89.5,72.8,30.02,SSE,151,8.0,16.0,58,0.00,,---,0.00,VWS V14.01,2013-07-06 21:05:00,
2013-07-06 17:10:00,89.9,75.1,30.02,ESE,105,13.0,16.0,62,0.00,,---,0.00,VWS V14.01,2013-07-06 21:10:00,
2013-07-06 17:15:00,89.6,72.9,30.02,ESE,110,6.0,13.0,58,0.00,,---,0.00,VWS V14.01,2013-07-06 21:15:00,
2013-07-06 17:20:00,88.8,72.6,30.02,East,85,5.0,13.0,59,0.00,,---,0.00,VWS V14.01,2013-07-06 21:20:00,
2013-07-06 17:25:00,88.4,72.8,30.02,SE,126,9.0,15.0,60,0.00,,---,0.00,VWS V14.01,2013-07-06 21:25:00,
2013-07-06 17:30:00,87.8,72.2,30.02,East,87,4.0,15.0,60,0.00,,---,0.00,VWS V14.01,2013-07-06 21:30:00,
2013-07-06 17:35:00,87.7,72.6,30.02,East,84,8.0,13.0,61,0.00,,---,0.00,VWS V14.01,2013-07-06 21:35:00,
2013-07-06 17:41:00,88.7,73.5,30.01,SE,140,5.0,6.0,61,0.00,,---,0.00,VWS V14.01,2013-07-06 21:41:00,
2013-07-06 17:46:00,89.1,72.4,30.01,East,98,6.0,12.0,58,0.00,,---,0.00,VWS V14.01,2013-07-06 21:46:00,
2013-07-06 17:52:00,88.3,72.7,30.01,SE,127,6.0,9.0,60,0.00,,---,0.00,VWS V14.01,2013-07-06 21:52:00,
2013-07-06 17:57:00,88.5,72.8,30.01,East,86,7.0,15.0,60,0.00,,---,0.00,VWS V14.01,2013-07-06 21:57:00,
2013-07-06 18:02:00,88.6,72.9,30.01,East,88,10.0,13.0,60,0.00,,---,0.00,VWS V14.01,2013-07-06 22:02:00,
2013-07-06 18:07:00,88.6,72.9,30.02,East,84,6.0,19.0,60,0.00,,---,0.00,VWS V14.01,2013-07-06 22:07:00,
2013-07-06 18:12:00,88.5,73.3,30.02,ENE,73,11.0,15.0,61,0.00,,---,0.00,VWS V14.01,2013-07-06 22:12:00,
2013-07-06 18:17:00,88.1,73.4,30.02,ESE,111,6.0,15.0,62,0.00,,---,0.00,VWS V14.01,2013-07-06 22:17:00,
2013-07-06 18:22:00,87.5,72.9,30.02,ESE,103,11.0,13.0,62,0.00,,---,0.00,VWS V14.01,2013-07-06 22:22:00,
2013-07-06 18:27:00,86.6,72.5,30.02,ESE,109,8.0,13.0,63,0.00,,---,0.00,VWS V14.01,2013-07-06 22:27:00,
2013-07-06 18:32:00,86.3,72.7,30.02,ESE,112,4.0,7.0,64,0.00,,---,0.00,VWS V14.01,2013-07-06 22:32:00,
2013-07-06 18:37:00,86.4,72.8,30.02,ESE,105,7.0,14.0,64,0.00,,---,0.00,VWS V14.01,2013-07-06 22:37:00,
2013-07-06 18:43:00,86.9,72.8,30.02,SE,136,5.0,12.0,63,0.00,,---,0.00,VWS V14.01,2013-07-06 22:43:00,
2013-07-06 18:48:00,87.0,72.9,30.02,ESE,113,8.0,15.0,63,0.00,,---,0.00,VWS V14.01,2013-07-06 22:48:00,
2013-07-06 18:53:00,87.2,73.6,30.01,SE,124,6.0,12.0,64,0.00,,---,0.00,VWS V14.01,2013-07-06 22:53:00,
2013-07-06 18:58:00,87.3,73.6,30.01,ESE,113,7.0,13.0,64,0.00,,---,0.00,VWS V14.01,2013-07-06 22:58:00,
2013-07-06 19:03:00,87.3,73.2,30.01,ESE,121,8.0,13.0,63,0.00,,---,0.00,VWS V14.01,2013-07-06 23:03:00,
2013-07-06 19:09:00,87.0,73.4,30.02,East,88,6.0,19.0,64,0.00,,---,0.00,VWS V14.01,2013-07-06 23:09:00,
2013-07-06 19:14:00,86.6,73.4,30.02,SE,129,7.0,12.0,65,0.00,,---,0.00,VWS V14.01,2013-07-06 23:14:00,
2013-07-06 19:19:00,86.4,73.2,30.02,ESE,111,6.0,18.0,65,0.00,,---,0.00,VWS V14.01,2013-07-06 23:19:00,
2013-07-06 19:24:00,86.2,73.5,30.02,ESE,103,7.0,14.0,66,0.00,,---,0.00,VWS V14.01,2013-07-06 23:24:00,
2013-07-06 19:29:00,85.8,73.1,30.02,ESE,109,9.0,14.0,66,0.00,,---,0.00,VWS V14.01,2013-07-06 23:29:00,
2013-07-06 19:34:00,85.3,73.6,30.03,ESE,121,7.0,16.0,68,0.00,,---,0.00,VWS V14.01,2013-07-06 23:34:00,
2013-07-06 19:40:00,85.0,73.7,30.03,East,98,11.0,16.0,69,0.00,,---,0.00,VWS V14.01,2013-07-06 23:40:00,
2013-07-06 19:45:00,84.7,73.4,30.03,East,97,6.0,12.0,69,0.00,,---,0.00,VWS V14.01,2013-07-06 23:45:00,
2013-07-06 19:50:00,84.5,73.7,30.03,ESE,119,7.0,12.0,70,0.00,,---,0.00,VWS V14.01,2013-07-06 23:50:00,
2013-07-06 19:55:00,84.2,73.4,30.03,ESE,121,6.0,12.0,70,0.00,,---,0.00,VWS V14.01,2013-07-06 23:55:00,
2013-07-06 20:00:00,84.1,73.3,30.04,ESE,114,6.0,14.0,70,0.00,,---,0.00,VWS V14.01,2013-07-07 00:00:00,
2013-07-06 20:05:00,84.0,73.6,30.04,SSE,151,7.0,8.0,71,0.00,,---,0.00,VWS V14.01,2013-07-07 00:05:00,
2013-07-06 20:10:00,83.1,73.1,30.05,ENE,75,5.0,17.0,72,0.00,,---,0.00,VWS V14.01,2013-07-07 00:10:00,
2013-07-06 20:15:00,80.8,73.3,30.05,ENE,73,10.0,19.0,78,0.02,,---,0.02,VWS V14.01,2013-07-07 00:15:00,
2013-07-06 20:20:00,78.4,72.4,30.05,ENE,66,4.0,19.0,82,0.02,,---,0.02,VWS V14.01,2013-07-07 00:20:00,
2013-07-06 20:25:00,77.4,72.5,30.05,ENE,67,1.0,5.0,85,0.02,,---,0.02,VWS V14.01,2013-07-07 00:25:00,
2013-07-06 20:31:00,76.9,72.4,30.05,ENE,67,4.0,4.0,86,0.02,,---,0.02,VWS V14.01,2013-07-07 00:31:00,
2013-07-06 20:36:00,76.9,73.1,30.05,ENE,67,3.0,4.0,88,0.02,,---,0.02,VWS V14.01,2013-07-07 00:36:00,
2013-07-06 20:41:00,76.9,73.1,30.05,ENE,67,2.0,3.0,88,0.02,,---,0.02,VWS V14.01,2013-07-07 00:41:00,
2013-07-06 20:47:00,76.9,73.4,30.06,ENE,71,1.0,3.0,89,0.02,,---,0.02,VWS V14.01,2013-07-07 00:47:00,
2013-07-06 20:52:00,77.0,73.5,30.06,ENE,71,3.0,4.0,89,0.02,,---,0.02,VWS V14.01,2013-07-07 00:52:00,
2013-07-06 20:57:00,77.1,73.6,30.06,ESE,115,1.0,7.0,89,0.02,,---,0.02,VWS V14.01,2013-07-07 00:57:00,
2013-07-06 21:02:00,77.2,73.7,30.06,ESE,115,2.0,4.0,89,0.02,,---,0.02,VWS V14.01,2013-07-07 01:02:00,
2013-07-06 21:07:00,77.3,73.8,30.06,ESE,115,5.0,7.0,89,0.02,,---,0.02,VWS V14.01,2013-07-07 01:07:00,
2013-07-06 21:13:00,77.4,73.9,30.07,ESE,115,6.0,6.0,89,0.02,,---,0.02,VWS V14.01,2013-07-07 01:13:00,
2013-07-06 21:18:00,77.5,74.0,30.07,ESE,108,1.0,8.0,89,0.02,,---,0.02,VWS V14.01,2013-07-07 01:18:00,
2013-07-06 21:23:00,77.6,74.1,30.07,East,100,5.0,6.0,89,0.00,,---,0.02,VWS V14.01,2013-07-07 01:23:00,
2013-07-06 21:28:00,77.7,74.2,30.07,ESE,104,5.0,10.0,89,0.00,,---,0.02,VWS V14.01,2013-07-07 01:28:00,
2013-07-06 21:34:00,77.8,74.0,30.07,ESE,110,4.0,11.0,88,0.00,,---,0.02,VWS V14.01,2013-07-07 01:34:00,
2013-07-06 21:39:00,77.7,73.5,30.07,ESE,114,1.0,11.0,87,0.00,,---,0.02,VWS V14.01,2013-07-07 01:39:00,
2013-07-06 21:44:00,77.6,73.8,30.08,East,100,2.0,6.0,88,0.00,,---,0.02,VWS V14.01,2013-07-07 01:44:00,
2013-07-06 21:49:00,77.6,73.8,30.08,ESE,103,2.0,8.0,88,0.00,,---,0.02,VWS V14.01,2013-07-07 01:49:00,
2013-07-06 21:54:00,77.5,73.7,30.08,ESE,103,2.0,4.0,88,0.00,,---,0.02,VWS V14.01,2013-07-07 01:54:00,
2013-07-06 22:00:00,77.5,73.7,30.08,ESE,103,4.0,5.0,88,0.00,,---,0.02,VWS V14.01,2013-07-07 02:00:00,
2013-07-06 22:05:00,77.4,73.9,30.08,East,98,5.0,7.0,89,0.00,,---,0.02,VWS V14.01,2013-07-07 02:05:00,
2013-07-06 22:10:00,77.4,73.9,30.08,East,99,4.0,7.0,89,0.00,,---,0.02,VWS V14.01,2013-07-07 02:10:00,
2013-07-06 22:15:00,77.5,74.0,30.09,ESE,102,1.0,6.0,89,0.00,,---,0.02,VWS V14.01,2013-07-07 02:15:00,
2013-07-06 22:20:00,77.6,73.8,30.08,ESE,108,1.0,7.0,88,0.00,,---,0.02,VWS V14.01,2013-07-07 02:20:00,
2013-07-06 22:25:00,77.6,73.8,30.08,ESE,109,2.0,7.0,88,0.00,,---,0.02,VWS V14.01,2013-07-07 02:25:00,
2013-07-06 22:30:00,77.6,73.8,30.08,ESE,109,5.0,7.0,88,0.00,,---,0.02,VWS V14.01,2013-07-07 02:30:00,
2013-07-06 22:36:00,77.6,73.4,30.09,ESE,119,1.0,9.0,87,0.00,,---,0.02,VWS V14.01,2013-07-07 02:36:00,
2013-07-06 22:41:00,77.5,73.3,30.09,ESE,113,2.0,5.0,87,0.00,,---,0.02,VWS V14.01,2013-07-07 02:41:00,
2013-07-06 22:46:00,77.5,73.3,30.09,ESE,113,2.0,6.0,87,0.00,,---,0.02,VWS V14.01,2013-07-07 02:46:00,
2013-07-06 22:51:00,77.5,73.3,30.09,ESE,112,5.0,6.0,87,0.00,,---,0.02,VWS V14.01,2013-07-07 02:51:00,
2013-07-06 22:56:00,77.6,73.4,30.09,ESE,107,5.0,8.0,87,0.00,,---,0.02,VWS V14.01,2013-07-07 02:56:00,
2013-07-06 23:02:00,77.6,73.1,30.09,ESE,111,4.0,8.0,86,0.00,,---,0.02,VWS V14.01,2013-07-07 03:02:00,
2013-07-06 23:07:00,77.7,73.2,30.09,East,98,6.0,8.0,86,0.00,,---,0.02,VWS V14.01,2013-07-07 03:07:00,
2013-07-06 23:13:00,77.7,73.2,30.09,ESE,114,6.0,11.0,86,0.00,,---,0.02,VWS V14.01,2013-07-07 03:13:00,
2013-07-06 23:18:00,77.7,73.2,30.09,ESE,103,2.0,11.0,86,0.00,,---,0.02,VWS V14.01,2013-07-07 03:18:00,
2013-07-06 23:24:00,77.8,73.3,30.10,ESE,113,1.0,8.0,86,0.00,,---,0.02,VWS V14.01,2013-07-07 03:24:00,
2013-07-06 23:29:00,77.7,73.2,30.09,East,98,6.0,8.0,86,0.00,,---,0.02,VWS V14.01,2013-07-07 03:29:00,
2013-07-06 23:34:00,77.7,73.2,30.09,ESE,109,5.0,7.0,86,0.00,,---,0.02,VWS V14.01,2013-07-07 03:34:00,
2013-07-06 23:39:00,77.6,73.1,30.10,ESE,117,2.0,8.0,86,0.00,,---,0.02,VWS V14.01,2013-07-07 03:39:00,
2013-07-06 23:44:00,77.7,73.2,30.10,ESE,111,2.0,6.0,86,0.00,,---,0.02,VWS V14.01,2013-07-07 03:44:00,
2013-07-06 23:49:00,77.7,73.2,30.10,ESE,109,4.0,8.0,86,0.00,,---,0.02,VWS V14.01,2013-07-07 03:49:00,
2013-07-06 23:54:00,77.7,73.2,30.09,ESE,111,2.0,7.0,86,0.00,,---,0.02,VWS V14.01,2013-07-07 03:54:00,